Tracking 19245 objects as of 14-Aug-2018
HD Live streaming from Space Station
objects crossing your sky now

MOLNIYA 3-47

Track MOLNIYA 3-47 now!
MOLNIYA 3-47 is classified as:


NORAD ID: 23642
Int'l Code: 1995-042A
Perigee: 1,253.8 km
Apogee: 38,877.8 km
Inclination: 63.1 °
Period: 713.0 minutes
Semi major axis: 26436 km
RCS: 13.479 m2 (large)
Launch date: August 9, 1995
Source: Commonwealth of Independent States (former USSR) (CIS)
Launch site: PLESETSK MISSILE AND SPACE COMPLEX (PKMTR)
aabbcc
Your satellite tracking list
Your tracking list is empty




NASA's NSSDC Master Catalog

Two Line Element Set (TLE):
1 23642U 95042A   18225.00166010 -.00001295 +00000-0 -40580-2 0  9997
2 23642 063.0541 234.7267 7115842 289.5581 010.4995 02.01971426168673
Source of the keplerian elements: AFSPC